When you browse on this site, cookies collect data to enhance your experience and personalize the content and advertising you see.
Visit our Privacy Policy to learn more. By continuing to use the site, you agree to this use of cookies and data.
  • In Österreich
  • Länderverzeichnis
  • Für 7 Tage
  • Wassertemperatur
  • Satellitenkarten
  • Wetterkarte
  • News
  • Widgets
  • user-avatar
    Anmelden

    Stündliche Wetter Dahab

    Heute, 19 Januar, Samstag

    Zeit Temperatur Niederschläge Wind Luftdruck Luftfeuchtigkeit
    00:00 +11°C° 0 mm 3 m/S 716 mmHg 42%
    01:00 +11°C° 0 mm 3 m/S 716 mmHg 42%
    02:00 +11°C° 0 mm 3 m/S 715 mmHg 42%
    03:00 +10°C° 0 mm 3 m/S 715 mmHg 42%
    04:00 +10°C° 0 mm 3 m/S 715 mmHg 43%
    05:00 +10°C° 0 mm 2 m/S 715 mmHg 43%
    06:00 +12°C° 0 mm 2 m/S 716 mmHg 39%
    07:00 +13°C° 0 mm 2 m/S 716 mmHg 36%
    08:00 +15°C° 0 mm 2 m/S 716 mmHg 30%
    09:00 +16°C° 0 mm 2 m/S 716 mmHg 29%
    10:00 +17°C° 0 mm 2 m/S 716 mmHg 28%
    11:00 +18°C° 0 mm 2 m/S 716 mmHg 27%
    12:00 +18°C° 0 mm 2 m/S 716 mmHg 26%
    13:00 +19°C° 0 mm 2 m/S 715 mmHg 25%
    14:00 +19°C° 0 mm 2 m/S 715 mmHg 25%
    15:00 +18°C° 0 mm 2 m/S 715 mmHg 26%
    16:00 +19°C° 0 mm 1 m/S 715 mmHg 28%
    17:00 +18°C° 0 mm 1 m/S 715 mmHg 29%
    18:00 +18°C° 0 mm 1 m/S 715 mmHg 30%
    19:00 +16°C° 0 mm 1 m/S 715 mmHg 32%
    20:00 +15°C° 0 mm 1 m/S 715 mmHg 33%
    21:00 +14°C° 0 mm 1 m/S 715 mmHg 31%
    22:00 +14°C° 0 mm 1 m/S 716 mmHg 29%
    23:00 +14°C° 0 mm 1 m/S 716 mmHg 27%

    Morgen, 20 Januar, Sonntag

    Zeit Temperatur Niederschläge Wind Luftdruck Luftfeuchtigkeit
    00:00 +14°C° 0 mm 1 m/S 715 mmHg 26%
    01:00 +13°C° 0 mm 1 m/S 715 mmHg 26%
    02:00 +13°C° 0 mm 2 m/S 715 mmHg 25%
    03:00 +13°C° 0 mm 1 m/S 715 mmHg 26%
    04:00 +12°C° 0 mm 1 m/S 715 mmHg 26%
    05:00 +12°C° 0 mm 1 m/S 715 mmHg 27%
    06:00 +13°C° 0 mm 1 m/S 715 mmHg 26%
    07:00 +14°C° 0 mm 1 m/S 715 mmHg 24%
    08:00 +15°C° 0 mm 1 m/S 716 mmHg 23%
    09:00 +18°C° 0 mm 1 m/S 716 mmHg 22%
    10:00 +19°C° 0 mm 1 m/S 716 mmHg 21%
    11:00 +20°C° 0 mm 1 m/S 716 mmHg 20%
    12:00 +20°C° 0 mm 2 m/S 716 mmHg 19%
    13:00 +20°C° 0 mm 2 m/S 715 mmHg 19%
    14:00 +21°C° 0 mm 2 m/S 715 mmHg 19%
    15:00 +20°C° 0 mm 2 m/S 715 mmHg 21%
    16:00 +19°C° 0 mm 2 m/S 714 mmHg 23%
    17:00 +20°C° 0 mm 1 m/S 714 mmHg 25%
    18:00 +19°C° 0 mm 1 m/S 714 mmHg 26%
    19:00 +18°C° 0 mm 1 m/S 715 mmHg 27%
    20:00 +16°C° 0 mm 1 m/S 715 mmHg 28%
    21:00 +18°C° 0 mm 1 m/S 715 mmHg 26%
    22:00 +18°C° 0 mm 1 m/S 715 mmHg 24%
    23:00 +18°C° 0 mm 1 m/S 715 mmHg 22%

    übermorgen, 21 Januar, Montag

    Zeit Temperatur Niederschläge Wind Luftdruck Luftfeuchtigkeit
    00:00 +16°C° 0 mm 1 m/S 715 mmHg 22%
    01:00 +16°C° 0 mm 2 m/S 715 mmHg 21%
    02:00 +16°C° 0 mm 2 m/S 715 mmHg 21%
    03:00 +16°C° 0 mm 1 m/S 714 mmHg 20%
    04:00 +15°C° 0 mm 1 m/S 714 mmHg 20%
    05:00 +15°C° 0 mm 1 m/S 714 mmHg 20%
    06:00 +16°C° 0 mm 1 m/S 714 mmHg 19%
    07:00 +18°C° 0 mm 1 m/S 715 mmHg 18%
    08:00 +19°C° 0 mm 1 m/S 715 mmHg 17%
    09:00 +20°C° 0 mm 1 m/S 715 mmHg 17%
    10:00 +21°C° 0 mm 1 m/S 716 mmHg 17%
    11:00 +21°C° 0 mm 2 m/S 716 mmHg 17%
    12:00 +23°C° 0 mm 2 m/S 715 mmHg 18%
    13:00 +23°C° 0 mm 2 m/S 715 mmHg 18%
    14:00 +23°C° 0 mm 2 m/S 714 mmHg 18%
    15:00 +21°C° 0 mm 2 m/S 714 mmHg 20%
    16:00 +22°C° 0 mm 1 m/S 714 mmHg 22%
    17:00 +21°C° 0 mm 1 m/S 714 mmHg 23%
    18:00 +20°C° 0 mm 1 m/S 715 mmHg 24%
    19:00 +19°C° 0 mm 1 m/S 715 mmHg 25%
    20:00 +18°C° 0 mm 1 m/S 715 mmHg 26%
    21:00 +18°C° 0 mm 1 m/S 715 mmHg 26%
    22:00 +18°C° 0 mm 1 m/S 715 mmHg 26%
    23:00 +16°C° 0 mm 1 m/S 715 mmHg 27%

    22 Januar, Dienstag

    Zeit Temperatur Niederschläge Wind Luftdruck Luftfeuchtigkeit
    00:00 +16°C° 0 mm 2 m/S 715 mmHg 28%
    01:00 +15°C° 0 mm 2 m/S 714 mmHg 29%
    02:00 +15°C° 0 mm 2 m/S 714 mmHg 31%
    03:00 +14°C° 0 mm 2 m/S 714 mmHg 31%
    04:00 +14°C° 0 mm 2 m/S 714 mmHg 32%
    05:00 +14°C° 0 mm 2 m/S 713 mmHg 32%
    06:00 +15°C° 0 mm 2 m/S 714 mmHg 30%
    07:00 +16°C° 0 mm 2 m/S 714 mmHg 27%
    08:00 +17°C° 0 mm 2 m/S 715 mmHg 24%
    09:00 +18°C° 0 mm 2 m/S 715 mmHg 22%
    10:00 +20°C° 0 mm 2 m/S 715 mmHg 20%
    11:00 +21°C° 0 mm 2 m/S 715 mmHg 18%
    12:00 +23°C° 0 mm 2 m/S 715 mmHg 18%
    13:00 +23°C° 0 mm 2 m/S 714 mmHg 17%
    14:00 +23°C° 0 mm 2 m/S 714 mmHg 17%
    15:00 +23°C° 0 mm 2 m/S 713 mmHg 19%
    16:00 +21°C° 0 mm 2 m/S 713 mmHg 20%
    17:00 +20°C° 0 mm 2 m/S 713 mmHg 22%
    18:00 +20°C° 0 mm 1 m/S 713 mmHg 24%
    19:00 +19°C° 0 mm 1 m/S 714 mmHg 26%
    20:00 +18°C° 0 mm 1 m/S 714 mmHg 27%
    21:00 +16°C° 0 mm 1 m/S 714 mmHg 27%
    22:00 +16°C° 0 mm 1 m/S 714 mmHg 26%
    23:00 +15°C° 0 mm 1 m/S 714 mmHg 25%

    23 Januar, Mittwoch

    Zeit Temperatur Niederschläge Wind Luftdruck Luftfeuchtigkeit
    00:00 +15°C° 0 mm 1 m/S 713 mmHg 25%
    01:00 +15°C° 0 mm 1 m/S 713 mmHg 25%
    02:00 +14°C° 0 mm 1 m/S 713 mmHg 24%
    03:00 +14°C° 0 mm 1 m/S 712 mmHg 24%
    04:00 +14°C° 0 mm 1 m/S 712 mmHg 24%
    05:00 +13°C° 0 mm 1 m/S 712 mmHg 24%
    06:00 +14°C° 0 mm 1 m/S 713 mmHg 22%
    07:00 +16°C° 0 mm 1 m/S 713 mmHg 21%
    08:00 +18°C° 0 mm 1 m/S 714 mmHg 20%
    09:00 +19°C° 0 mm 1 m/S 714 mmHg 18%
    10:00 +21°C° 0 mm 1 m/S 713 mmHg 17%
    11:00 +21°C° 0 mm 2 m/S 713 mmHg 15%
    12:00 +23°C° 0 mm 2 m/S 713 mmHg 15%
    13:00 +22°C° 0 mm 3 m/S 712 mmHg 15%
    14:00 +24°C° 0 mm 3 m/S 712 mmHg 15%
    15:00 +22°C° 0 mm 3 m/S 712 mmHg 18%
    16:00 +21°C° 0 mm 2 m/S 712 mmHg 20%
    17:00 +20°C° 0 mm 2 m/S 712 mmHg 23%
    18:00 +20°C° 0 mm 1 m/S 712 mmHg 24%
    19:00 +19°C° 0 mm 1 m/S 712 mmHg 25%
    20:00 +18°C° 0 mm 1 m/S 712 mmHg 26%
    21:00 +18°C° 0 mm 1 m/S 712 mmHg 25%
    22:00 +18°C° 0 mm 1 m/S 712 mmHg 23%
    23:00 +18°C° 0 mm 1 m/S 712 mmHg 22%

    24 Januar, Donnerstag

    Zeit Temperatur Niederschläge Wind Luftdruck Luftfeuchtigkeit
    00:00 +16°C° 0 mm 1 m/S 712 mmHg 21%
    01:00 +16°C° 0 mm 1 m/S 711 mmHg 20%
    02:00 +16°C° 0 mm 1 m/S 711 mmHg 20%
    03:00 +15°C° 0 mm 1 m/S 711 mmHg 20%
    04:00 +15°C° 0 mm 1 m/S 711 mmHg 20%
    05:00 +15°C° 0 mm 1 m/S 711 mmHg 20%
    06:00 +16°C° 0 mm 1 m/S 711 mmHg 18%
    07:00 +18°C° 0 mm 1 m/S 712 mmHg 17%
    08:00 +19°C° 0 mm 1 m/S 712 mmHg 15%
    09:00 +20°C° 0 mm 2 m/S 712 mmHg 17%
    10:00 +21°C° 0 mm 2 m/S 712 mmHg 20%
    11:00 +24°C° 0 mm 3 m/S 713 mmHg 22%
    12:00 +24°C° 0 mm 3 m/S 712 mmHg 25%
    13:00 +24°C° 0 mm 3 m/S 712 mmHg 28%
    14:00 +25°C° 0 mm 4 m/S 712 mmHg 31%
    15:00 +24°C° 0 mm 3 m/S 712 mmHg 37%
    16:00 +22°C° 0 mm 3 m/S 712 mmHg 43%
    17:00 +21°C° 0 mm 2 m/S 712 mmHg 49%
    18:00 +20°C° 0 mm 2 m/S 712 mmHg 55%
    19:00 +20°C° 0 mm 1 m/S 712 mmHg 61%
    20:00 +19°C° 0 mm 1 m/S 713 mmHg 66%
    21:00 +19°C° 0 mm 1 m/S 713 mmHg 66%
    22:00 +19°C° 0 mm 1 m/S 713 mmHg 66%
    23:00 +19°C° 0 mm 1 m/S 713 mmHg 67%
    Mehr zeigen